Woolwich, ME

5:36 PM EST on February 26, 2017 (GMT -0500)
Wiscasset

Weather History for KIWI - July, 2014

Change the Weather History Date:

Tuesday, July 29, 2014

  Actual Average Record
Temperature  
Mean Temperature 68 °F -  
Max Temperature 75 °F 76 °F 89 °F (2006)
Min Temperature 60 °F 54 °F 46 °F (2001)
Cooling Degree Days 2    
Growing Degree Days 18 (Base 50)    
Moisture  
Dew Point 61 °F    
Average Humidity 81    
Maximum Humidity 96    
Minimum Humidity 55    
Precipitation  
Precipitation 0.00 in - - ()
Sea Level Pressure  
Sea Level Pressure 29.71 in    
Wind  
Wind Speed 4 mph (SW)    
Max Wind Speed 9 mph    
Max Gust Speed 17 mph    
Visibility 9 miles    
Events      
Averages and records for this station are not official NWS values.
T = Trace of Precipitation, MM = Missing Value Source: NWS Daily Summary

Daily Weather History Graph

Daily Weather History Graph

Search for Another Location

Airport or City:

Trip Planner

Search our weather history database for the weather conditions in past years. The results will help you decide how hot, cold, wet, or windy it might be!

Date:

Astronomy

Jul. 29, 2014 Rise Set
Actual Time 5:23 AM EDT 8:06 PM EDT
Civil Twilight 4:50 AM EDT 8:39 PM EDT
Nautical Twilight 4:08 AM EDT 9:21 PM EDT
Astronomical Twilight 3:20 AM EDT 10:09 PM EDT
Moon 8:04 AM EDT (7/29) 9:08 PM EDT (7/29)
Length of Visible Light 15h 48m
Length of Day
14h 42m
Waxing Crescent, 7% of the Moon is Illuminated
Jul 29
Waxing Crescent
Aug 3
First Quarter
Aug 10
Full
Aug 17
Last Quarter
Aug 25
New

Hourly Weather History & Observations

Time (EDT) Temp. Dew Point Humidity Pressure Visibility Wind Dir Wind Speed Gust Speed Precip Events Conditions
12:16 AM 66.0 °F 64.0 °F 93% 29.51 in 9.0 mi WSW 4.6 mph - N/A   Overcast
12:27 AM 66.0 °F 64.0 °F 93% 29.50 in 10.0 mi WSW 3.5 mph - N/A   Overcast
12:53 AM 66.0 °F 64.0 °F 93% 29.50 in 10.0 mi SW 3.5 mph - N/A   Overcast
1:53 AM 64.9 °F 63.0 °F 93% 29.51 in 10.0 mi SSW 4.6 mph - N/A   Overcast
2:44 AM 64.0 °F 63.0 °F 96% 29.53 in 2.5 mi SSW 5.8 mph - N/A   Overcast
2:53 AM 64.9 °F 63.0 °F 93% 29.54 in 2.5 mi SW 5.8 mph - N/A   Overcast
3:02 AM 64.9 °F 63.0 °F 93% 29.54 in 4.0 mi SW 5.8 mph - N/A   Overcast
3:53 AM 64.9 °F 63.0 °F 93% 29.56 in 10.0 mi WSW 3.5 mph - N/A   Overcast
4:18 AM 64.9 °F 63.0 °F 93% 29.57 in 10.0 mi Variable 3.5 mph - N/A   Scattered Clouds
4:53 AM 64.0 °F 62.1 °F 93% 29.58 in 10.0 mi Calm Calm - N/A   Overcast
5:53 AM 64.0 °F 62.1 °F 93% 29.61 in 10.0 mi Calm Calm - N/A   Overcast
6:53 AM 64.9 °F 60.1 °F 84% 29.64 in 10.0 mi Variable 3.5 mph - N/A   Overcast
7:53 AM 66.9 °F 60.1 °F 79% 29.67 in 10.0 mi West 9.2 mph - N/A   Clear
8:53 AM 66.9 °F 57.9 °F 73% 29.70 in 10.0 mi Variable 5.8 mph 17.3 mph N/A   Scattered Clouds
10:53 AM 71.1 °F 57.9 °F 63% 29.75 in 10.0 mi WNW 8.1 mph - N/A   Scattered Clouds
11:53 AM 72.0 °F 57.9 °F 61% 29.77 in 10.0 mi NW 5.8 mph - N/A   Partly Cloudy
12:53 PM 73.9 °F 57.0 °F 55% 29.78 in 10.0 mi Variable 5.8 mph - N/A   Clear
1:53 PM 73.9 °F 57.0 °F 55% 29.80 in 10.0 mi Calm Calm - N/A   Overcast
2:53 PM 73.9 °F 59.0 °F 59% 29.81 in 10.0 mi Calm Calm - N/A   Overcast
3:53 PM 73.0 °F 59.0 °F 61% 29.83 in 10.0 mi Variable 4.6 mph - N/A   Overcast
4:53 PM 72.0 °F 60.1 °F 66% 29.86 in 10.0 mi Variable 3.5 mph - N/A   Overcast
6:53 PM 70.0 °F 60.1 °F 71% 29.90 in 10.0 mi Calm Calm - N/A   Mostly Cloudy
7:53 PM 68.0 °F 59.0 °F 73% 29.92 in 10.0 mi Calm Calm - N/A   Overcast
8:53 PM 63.0 °F 61.0 °F 93% 29.93 in 10.0 mi Calm Calm - N/A   Overcast
9:53 PM 63.0 °F 61.0 °F 93% 29.95 in 10.0 mi Calm Calm - N/A   Overcast
10:53 PM 62.1 °F 60.1 °F 93% 29.95 in 10.0 mi Calm Calm - N/A   Mostly Cloudy
11:53 PM 60.1 °F 57.9 °F 93% 29.96 in 10.0 mi SE 3.5 mph - N/A   Clear